Location: Niles Junction
(37.5763°N, 121.9714°W)
Time: 04:35:57
(UTC+00:00)

Lacrosse 5 rocket - Pass Details

Date: 29 October 2020
Orbit: 458 x 638 km, 57.0° (Epoch: 23 November)

Event Time Altitude Azimuth Distance (km) Brightness Sun altitude
Exits shadow 12:18:34 10° 17° (NNE) 1,652 4.0 -26.6°
Drops below altitude 10° 12:18:35 10° 17° (NNE) 1,656 4.0 -26.6°
Sets 12:21:07 0° 32° (NNE) 2,567 5.2 -26.1°
